Regional Weather Roundup
Issued by NWS

Home | Current Version | Previous Version | Graphics & Text | Print | Product List | Glossary On
Versions: 1 2 3 4 5 6 7 8 9 10 11 12 13 14 15 16 17 18 19 20 21 22 23 24 25 26 27 28 29 30 31 32 33 34 35 36 37 38 39 40 41 42 43 44 45 46 47 48 49 50
000
ASUS44 KMEG 240000
RWRTN
TENNESSEE HOURLY STATE WEATHER ROUNDUP
NATIONAL WEATHER SERVICE MEMPHIS TN
700 PM CDT TUE SEP 23 2014

TNZ002-004-019-021-049-052-054-088>092-240100-
WEST TENNESSEE

CITY           SKY/WX    TMP DP  RH WIND       PRES   REMARKS
MEMPHIS INTL   PTCLDY    74  46  36 NE8       30.16R
NWS MEMPHIS      N/A     72 N/A N/A MISG        N/A
JACKSON        PTCLDY    68  51  54 NE3       30.17F
DYERSBURG      CLEAR     68  46  45 CALM      30.19S
PARIS          CLEAR     63  50  63 CALM      30.20S
SAVANNAH       CLEAR     70  48  46 NE5       30.17R
$$

TNZ008-025-027-028-033-062-065-066-240100-
NORTH MIDDLE TENNESSEE

CITY           SKY/WX    TMP DP  RH WIND       PRES   REMARKS
NASHVILLE      CLEAR     69  46  43 NE7       30.20S
CLARKSVILLE    CLEAR     67  46  47 NE7       30.20R
COOKEVILLE     CLEAR     63  54  72 NE3       30.22S
CROSSVILLE     CLEAR     65  48  54 NE3       30.25R
$$

TNZ061-075-076-078-094-096-097-240100-
SOUTH MIDDLE TENNESSEE

CITY           SKY/WX    TMP DP  RH WIND       PRES   REMARKS
FAYETTEVILLE   CLEAR     68  52  56 NE6       30.18S
WINCHESTER     MOCLDY    70  57  64 CALM      30.20R
COLUMBIA       CLEAR     68  52  56 CALM      30.18S
SHELBYVILLE    CLEAR     66  50  55 NE6       30.20S
$$

TNZ017-018-042-046-047-240100-
NORTHEAST TENNESSEE

CITY           SKY/WX    TMP DP  RH WIND       PRES   REMARKS
TRI CITIES     MOCLDY    66  51  58 E5        30.26R
ELIZABETHTON   CLEAR     61  52  72 E5        30.28R
$$

TNZ012-013-036-069-073-074-240100-
CENTRAL EAST TENNESSEE

CITY           SKY/WX    TMP DP  RH WIND       PRES   REMARKS
KNOXVILLE      CLEAR     69  52  54 N5        30.20S
OAK RIDGE      CLEAR     68  53  58 CALM      30.23S
GATLINBURG     CLEAR     66  50  55 CALM      30.21R
$$

TNZ083-085-099-240100-
SOUTHEAST TENNESSEE

CITY           SKY/WX    TMP DP  RH WIND       PRES   REMARKS
CHATTANOOGA    PTCLDY    73  53  49 NE6       30.19S
$$

SKY/WX REPORTED AS FAIR MEANS FEW OR NO CLOUDS BELOW
12 THOUSAND FEET.




USA.gov is the U.S. government's official web portal to all federal, state and local government web resources and services.